TimeEDT,TemperatureF,Dew PointF,Humidity,Sea Level PressureIn,VisibilityMPH,Wind Direction,Wind SpeedMPH,Gust SpeedMPH,PrecipitationIn,Events,Conditions,WindDirDegrees,DateUTC
12:53 AM,73.0,64.9,76,29.96,10.0,West,4.6,-,0.00,,Overcast,260,2013-08-27 04:53:00
1:53 AM,73.0,64.9,76,29.94,10.0,West,6.9,-,N/A,,Overcast,270,2013-08-27 05:53:00
2:53 AM,73.0,64.9,76,29.93,10.0,West,4.6,-,N/A,,Overcast,270,2013-08-27 06:53:00
3:53 AM,71.1,64.9,81,29.92,9.0,WNW,4.6,-,N/A,,Clear,290,2013-08-27 07:53:00
4:53 AM,71.1,64.9,81,29.92,9.0,WNW,5.8,-,N/A,,Mostly Cloudy,290,2013-08-27 08:53:00
5:53 AM,69.1,64.0,84,29.92,8.0,WNW,5.8,-,N/A,,Clear,300,2013-08-27 09:53:00
6:53 AM,68.0,64.9,90,29.93,5.0,West,4.6,-,N/A,,Clear,260,2013-08-27 10:53:00
7:35 AM,69.8,66.2,88,29.95,5.0,WNW,3.5,-,N/A,,Clear,290,2013-08-27 11:35:00
7:53 AM,72.0,66.0,81,29.94,6.0,West,3.5,-,N/A,,Haze,270,2013-08-27 11:53:00
8:53 AM,77.0,66.9,71,29.94,7.0,WNW,4.6,-,N/A,,Clear,300,2013-08-27 12:53:00
9:53 AM,79.0,66.9,66,29.93,10.0,NNW,9.2,-,N/A,,Clear,330,2013-08-27 13:53:00
10:53 AM,79.0,66.0,64,29.95,10.0,NW,6.9,-,N/A,,Mostly Cloudy,320,2013-08-27 14:53:00
11:53 AM,81.0,66.0,60,29.94,10.0,NW,10.4,-,N/A,,Overcast,320,2013-08-27 15:53:00
12:53 PM,84.0,66.9,56,29.93,10.0,North,8.1,-,N/A,,Scattered Clouds,360,2013-08-27 16:53:00
1:53 PM,84.9,66.0,53,29.92,10.0,NNW,8.1,-,N/A,,Partly Cloudy,330,2013-08-27 17:53:00
2:53 PM,84.0,64.9,53,29.91,10.0,WNW,8.1,-,N/A,,Mostly Cloudy,300,2013-08-27 18:53:00
3:53 PM,84.0,64.9,53,29.89,10.0,WNW,6.9,-,N/A,,Scattered Clouds,300,2013-08-27 19:53:00
4:53 PM,84.0,66.0,55,29.89,10.0,NW,8.1,-,N/A,,Partly Cloudy,310,2013-08-27 20:53:00
5:53 PM,84.9,66.9,55,29.88,10.0,WNW,3.5,-,N/A,,Clear,290,2013-08-27 21:53:00
6:53 PM,82.9,68.0,60,29.88,10.0,Calm,Calm,-,N/A,,Clear,0,2013-08-27 22:53:00
7:53 PM,79.0,69.1,72,29.88,10.0,Calm,Calm,-,N/A,,Clear,0,2013-08-27 23:53:00
8:53 PM,75.9,69.1,79,29.90,9.0,Calm,Calm,-,N/A,,Clear,0,2013-08-28 00:53:00
9:53 PM,75.0,68.0,79,29.91,9.0,East,3.5,-,N/A,,Clear,90,2013-08-28 01:53:00
10:53 PM,73.9,68.0,82,29.92,8.0,Calm,Calm,-,N/A,,Clear,0,2013-08-28 02:53:00
11:53 PM,71.1,69.1,93,29.91,5.0,Calm,Calm,-,N/A,,Clear,0,2013-08-28 03:53:00